www.pogodaiklimat.ru

Погода и климат >> Архив погоды >> Мадагаскар >> Toamasina


ПОГОДА в Toamasina

  • Прогноз погоды в Toamasina
  • Монитор погоды в Toamasina
  • Климат города

АРХИВ ПОГОДЫ в Toamasina

Время (UTC), дата Ветер
(напр.,м/с)
 
Видим.   Явления Облачность Т
(С)
Тd
(С)
f
(%)
Тe
(С)
Тes
(С)
Комфортность P
(гПа)
Po
(гПа)
Тmin
(С)
Tmax
(С)
R
(мм)
R24
(мм)
S
(см)
06 8.08 СЗ 1 35 км 1/1 500 м
[Cu Sc]
+24.5 +19.7 75 +30 +39 очень
душно
1020.4 1019.8 +16.2 +27.3
09 8.08 ЮВ 3 35 км 4/4 500 м
[Cu Sc]
+27.5 +16.4 51 +31 +39 душно 1019.9 1019.3
12 8.08 ЮВ 4 40 км 1/1 500 м
[Cu Sc]
+26.5 +16.0 52 +30 +33 душно 1018.2 1017.5
15 8.08 штиль 0 25 км 1/1 500 м
[Cu Sc]
+23.2 +18.5 75 +29 +29 душно 1018.7 1018.0 +27.8
18 8.08 штиль 0 25 км 1/1 500 м
[Cu Sc]
+18.8 +17.3 91 +20 +20 1020.5 1019.9 +27.8
21 8.08 штиль 0 25 км 1/1 500 м
[Cu Sc]
+17.0 +16.0 94 +17 +17 1021.1 1020.4
00 9.08 штиль 0 25 км 4/4 500 м
[Cu Sc]
+16.5 +15.8 96 +16 +16 1020.1 1019.5
03 9.08 штиль 0 30 км 4/4 500 м
[Cu Sc]
+15.8 +15.3 97 +16 +16 1021.0 1020.4
06 9.08 З 2 40 км 3/3 500 м
[Cu Sc]
+23.5 +18.8 75 +28 +34 душно 1022.8 1022.2 +15.0 +27.8
09 9.08 ЮВ 3 40 км 3/3 500 м
[Cu Sc]
+26.8 +18.2 59 +31 +40 душно 1022.2 1021.5
12 9.08 ЮВ 3 35 км 1/1 500 м
[Cu med, cong]
+25.8 +18.3 63 +30 +35 душно 1020.8 1020.2
15 9.08 штиль 0 25 км 1/1 500 м
[Cu Sc]
+23.3 +18.6 75 +29 +29 душно 1021.8 1021.2 +27.0
18 9.08 штиль 0 25 км 3/3 500 м
[Cu Sc]
+18.5 +17.4 93 +19 +19 1024.0 1023.3 +27.0
21 9.08 штиль 0 25 км 6/6 500 м
[Cu Sc]
+18.8 +18.2 96 +20 +20 1024.6 1024.0
00 10.08 штиль 0 25 км 5/5 500 м
[Cu Sc]
+17.2 +16.4 95 +17 +17 1023.5 1022.8
03 10.08 штиль 0 15 км осадки на расстоянии 8/8 500 м
[Cu Sc]
+18.8 +18.0 95 +20 +20 1024.6 1023.9
06 10.08 ЮЗ 4 25 км 9/9 500 м
[Cu Sc]
+23.2 +19.0 77 +29 +30 душно 1025.8 1025.1 +17.0 +27.0
09 10.08 Ю 4 30 км 6/6 500 м
[Cu Sc]
+26.4 +16.1 53 +30 +34 душно 1025.0 1024.3
12 10.08 Ю 5 30 км 4/4 500 м
[Cu Sc]
+25.8 +18.4 64 +31 +32 очень
душно
1023.7 1023.1
15 10.08 Ю 3 25 км 3/3 500 м
[Cu Sc]
+24.0 +18.3 70 +28 +28 душно 1024.6 1023.9 +27.2
18 10.08 Ю 2 25 км 5/5 500 м
[Cu Sc]
+23.3 +18.9 76 +30 +30 очень
душно
1026.8 1026.2 +27.2
21 10.08 25 км н/о +19.5 +18.2 92 +22 +22 комфорт 1027.4 1026.7
00 11.08 штиль 0 25 км 6/6 500 м
[Cu Sc]
+19.4 +17.8 90 +21 +21 комфорт 1026.1 1025.4
03 11.08 ЮЗ 2 25 км 8/8 210 м
[Cu Sc]
+19.5 +18.4 93 +22 +22 комфорт 1026.4 1025.7
06 11.08 ЮЗ 4 30 км 4/3 500 м
[Cu Sc Ac trans]
+24.6 +19.8 75 +30 +34 очень
душно
1027.3 1026.6 +18.0 +27.2
09 11.08 ЮВ 4 30 км 5/5 500 м
[Cu Sc Ac trans]
+27.2 +19.7 64 +33 +38 очень
душно
1026.2 1025.6
12 11.08 ЮВ 4 30 км 8/4 500 м
[Cu Sc Ac trans]
+26.5 +20.3 69 +33 +34 очень
душно
1025.1 1024.5
15 11.08 Ю 3 25 км 9/8 500 м
[Cu Sc Ac trans]
+24.5 +20.7 79 +30 +30 очень
душно
1025.6 1024.9 +27.5
18 11.08 Ю 3 20 км осадки на расстоянии 9/9 500 м
[Cu Sc]
+24.2 +21.0 82 +30 +30 очень
душно
1026.7 1026.1 +27.5
21 11.08 ЮВ 4 20 км осадки на расстоянии 9/9 500 м
[Cu Sc]
+24.0 +21.0 83 +30 +30 очень
душно
1026.1 1025.5
00 12.08 ЮВ 4 25 км 8/8 500 м
[Cu Sc]
+23.5 +20.6 84 +29 +29 душно 1025.0 1024.4
03 12.08 Ю 4 25 км 8/8 500 м
[Cu Sc]
+23.3 +20.2 83 +31 +31 очень
душно
1026.0 1025.4
06 12.08 ЮВ 3 25 км 8/8 500 м
[Cu Sc Ac trans]
+25.6 +20.1 72 +32 +33 очень
душно
1027.2 1026.6 +23.0 +27.5
09 12.08 ЮВ 4 30 км 3/3 500 м
[Cu Sc Ac trans]
+27.5 +19.0 60 +33 +40 очень
душно
1026.2 1025.6
12 12.08 Ю 5 30 км 4/4 500 м
[Cu Sc]
+25.7 +19.5 69 +31 +33 очень
душно
1024.6 1024.0
15 12.08 Ю 2 25 км 6/6 210 м
[Cu Sc]
+24.0 +19.3 75 +29 +29 душно 1025.0 1024.4 +28.0
21 12.08 штиль 0 20 км 9/9 500 м
[Cu Sc]
+21.0 +19.4 91 +25 +25 комфорт 1026.1 1025.5
00 13.08 штиль 0 20 км 9/9 500 м
[Cu Sc]
+20.4 +19.4 94 +24 +24 комфорт 1025.0 1024.3
03 13.08 ЮЗ 1 20 км 3/3 500 м
[Cu Sc Ac trans]
+22.5 +18.5 78 +28 +28 душно 1025.1 1024.5
06 13.08 Ю 4 30 км 8/8 500 м
[Cu Sc]
+24.2 +19.2 74 +29 +30 душно 1026.9 1026.2 +19.2 +28.0
09 13.08 Ю 5 30 км 4/4 500 м
[Cu Sc]
+26.8 +17.6 57 +31 +36 душно 1026.0 1025.4
12 13.08 ЮВ 6 20 км осадки на расстоянии 8/8 500 м
[Cu Sc]
+26.2 +19.3 66 +32 +32 очень
душно
1024.9 1024.2
15 13.08 Ю 4 20 км осадки на расстоянии 6/6 500 м
[Cu Sc]
+24.2 +18.9 72 +29 +29 душно 1025.3 1024.6 +27.8
18 13.08 ЮВ 4 25 км 6/6 500 м
[Cu Sc]
+23.3 +18.4 74 +29 +29 душно 1026.7 1026.0
21 13.08 штиль 0 25 км 8/8 500 м
[Cu Sc]
+19.2 +17.2 88 +21 +21 комфорт 1025.3 1024.7
00 14.08 штиль 0 10 км в посл. час дождь 8/8 500 м
[Cu Sc]
+20.5 +19.7 95 +24 +24 комфорт 1024.5 1023.8 2
03 14.08 штиль 0 15 км осадки на расстоянии 9/9 500 м
[Cu Sc]
+20.0 +19.7 98 +23 +23 комфорт 1024.5 1023.8 2
06 14.08 Ю 5 20 км осадки на расстоянии {дождь} 8/8 500 м
[Cu Sc]
+24.5 +19.6 74 +30 +31 очень
душно
1025.7 1025.0 +19.6 +27.8 2
09 14.08 Ю 6 35 км 5/5 500 м
[Cu Sc Ac trans]
+26.8 +19.1 63 +32 +35 очень
душно
1025.3 1024.5 0.2
12 14.08 ЮЗ 6 20 км 4/4 500 м
[Cu Sc]
+24.8 +18.7 69 +30 +31 душно 1024.1 1023.4
15 14.08 Ю 5 25 км 4/4 500 м
[Cu Sc]
+23.8 +18.4 72 +28 +28 душно 1024.7 1024.0 +27.5
18 14.08 Ю 4 25 км 5/5 500 м
[Cu Sc]
+23.3 +18.2 73 +29 +29 душно 1026.3 1025.6 +27.5
21 14.08 Ю 3 25 км 6/6 500 м
[Cu Sc]
+23.2 +18.3 74 +29 +29 душно 1026.2 1025.6
00 15.08 штиль 0 25 км 8/8 500 м
[Cu Sc]
+19.5 +18.4 93 +22 +22 комфорт 1025.1 1024.4
03 15.08 ЮЗ 1 30 км 5/5 500 м
[Cu Sc]
+18.1 +17.3 95 +19 +19 1025.5 1024.8

 

Местоположение метеостанции Toamasina (Мадагаскар): широта -18.11 долгота 49.40 высота над уровнем моря 6 м.

В архиве по умолчанию представлена погода в Toamasina за последнюю неделю. Архивные данные за месяц целиком и за предыдущие месяцы, начиная с января 2011 года, Вы можете получить, выбрав интересующий диапазон дат из раскрывающегося списка и нажав кнопку "Ввод!".


*Определитесь, кто Вы:
робот инопланетянин человек

Внимание! Время в таблицах - всемирное. Для получения местного времени необходимо прибавить поправку, которая в Toamasina равна 3 ч.

Смотрите также архив погоды в соседних городах и на ближайших метеорологических станциях:

Погода в Ambohitsilaozana (Мадагаскар) (109 км)
Погода в Nosy Boraha (Мадагаскар) (123 км)
Погода в Mahanoro (Мадагаскар) (201 км)
Погода в Antananarivo Airport (Мадагаскар) (217 км)
Погода в Antananarivo (Мадагаскар) (218 км)
Погода в Antsirabe (Мадагаскар) (310 км)
Погода в Antalaha (Мадагаскар) (371 км)
Погода в Antsohihy (Мадагаскар) (390 км)
Погода в Mananjary (Мадагаскар) (403 км)
Погода в Mahajanga (Мадагаскар) (424 км)

Пояснения к столбцам:

Ветер - указаны скорость ветра в м/с - средняя за 10 мин, порывы в срок и между сроками (в фигурных скобках) и направление, откуда дует ветер: С - северный, СВ - северо-восточный, В - восточный, ЮВ - юго-восточный, Ю - южный, ЮЗ - юго-западный, З - западный, СЗ - северо-западный.
Видимость - горизонтальная дальность видимости в метрах или километрах. При видимости от 1 до 10 км при отсутствии осадков обычно наблюдается дымка, при ухудшении видимости до 1 км и менее - туман. В сухую погоду видимость может ухудшаться дымом, пылью или мглою.
Явления - указаны атмосферные явления, наблюдавшиеся в срок или в последний час перед сроком; фигурными скобками обозначены явления, наблюдавшиеся между сроками (за 1-3 часа до срока); квадратными скобками обозначены град или гололедные отложения с указанием их диаметра в мм.
Облачность - указаны через наклонную черту общая и нижняя облачность в баллах и высота нижней границы облаков в метрах; квадратными скобками обозначены формы облаков: Ci - перистые, Cs - перисто-слоистые, Cc - перисто-кучевые, Ac - высококучевые, As - высокослоистые, Sc - слоисто-кучевые, Ns - слоисто-дождевые, Cu - кучевые, Cb - кучево-дождевые. Подробнее классификацию облаков см. в Атласе облаков (PDF).
T - Температура воздуха - температура, измеренная на высоте 2 м над землей.
Td - Температура точки росы - температура, при понижении до которой содержащийся в воздухе водяной пар достигнет насыщения.
f - Относительная влажность воздуха - влажноcть воздуха, измеренная на высоте 2 м над землей.
Te - Эффективная температура - температура, которую ощущает одетый по сезону человек в тени. Характеристика душности погоды. При расчете учитывается влияние влажности воздуха и скорости ветра на теплоощущения человека.
Tes - Эффективная температура на солнце - температура, которую ощущает человек, с поправкой на солнечный нагрев. Характеристика знойности погоды. Зависит от высоты солнца над горизонтом, облачности и скорости ветра. Ночью, в пасмурную погоду, а также при ветре 12 м/с и более поправка равна нулю.
P - Атмосферное давление - приведенное к уровню моря атмосферное давление.
Po - Атмосферное давление - измеренное на уровне метеостанции атмосферное давление.
Tmin - Минимальная температура - минимум температуры воздуха на высоте 2 м над землей.
Tmax - Максимальная температура - максимум температуры воздуха на высоте 2 м над землей.
R - Количество осадков - Количество выпавших осадков за период времени, мм. При наведении курсора мыши на число - период времени, за который выпало указанное количество осадков.
R24 - Количество осадков - Количество выпавших осадков за 24 часа, мм.
S - Снежный покров - Высота снежного покрова, см. При наведении курсора мыши на число - состояние снежного покрова и степень покрытия местности в баллах.